Preview of NWS' New Version of Forecast
This preview is not operational and should not be used for support decisions.

Regional Weather Roundup (RWR)

Issued by National Weather Service (NWS)

                            
000
ASUS44 KMEG 211400
RWRTN 
TENNESSEE HOURLY STATE WEATHER ROUNDUP
NATIONAL WEATHER SERVICE MEMPHIS TN
900 AM CDT SUN JUL 21 2019

TNZ002-004-019-021-049-052-054-088>092-211500-
WEST TENNESSEE
  
CITY           SKY/WX    TMP DP  RH WIND       PRES   REMARKS
MEMPHIS INTL   FAIR      82  77  84 SW9       30.01R HX  90           
NWS MEMPHIS      N/A     81 N/A N/A MISG        N/A                   
JACKSON        LGT RAIN  76  75  97 VRB3      30.03S FOG              
DYERSBURG      PTSUNNY   82  77  84 S5        30.00R HX  90           
HUNTINGDON     CLOUDY    79  75  89 SW8       30.01S                  
$$

TNZ008-025-027-028-033-062-065-066-211500-
NORTH MIDDLE TENNESSEE
  
CITY           SKY/WX    TMP DP  RH WIND       PRES   REMARKS
NASHVILLE      CLOUDY    77  72  84 SW6       30.04R                  
CLARKSVILLE    CLOUDY    76  75  97 SW9       30.01S                  
SMYRNA         CLOUDY    75  73  93 SW3       30.05R                  
LIVINGSTON     CLOUDY    73  72  94 SW9       30.06F                  
CROSSVILLE     CLOUDY    73  69  87 SW6       30.12R                  
$$

TNZ061-075-076-078-094-096-097-211500-
SOUTH MIDDLE TENNESSEE
  
CITY           SKY/WX    TMP DP  RH WIND       PRES   REMARKS
FAYETTEVILLE   CLOUDY    75  73  94 S7        30.07R                  
$$

TNZ017-018-042-046-047-211500-
NORTHEAST TENNESSEE
  
CITY           SKY/WX    TMP DP  RH WIND       PRES   REMARKS
TRI CITIES     CLOUDY    77  71  82 SW3       30.10S HAZE             
$$

TNZ012-013-036-069-073-074-211500-
CENTRAL EAST TENNESSEE
  
CITY           SKY/WX    TMP DP  RH WIND       PRES   REMARKS
KNOXVILLE      CLOUDY    77  71  82 SW12      30.07R                  
OAK RIDGE      CLOUDY    77  72  84 VRB5      30.08R                  
$$

TNZ083-085-099-211500-
SOUTHEAST TENNESSEE
  
CITY           SKY/WX    TMP DP  RH WIND       PRES   REMARKS
CHATTANOOGA    PTSUNNY   79  71  76 CALM      30.08S                  
$$

SKY/WX REPORTED AS FAIR MEANS FEW OR NO CLOUDS BELOW
12 THOUSAND FEET.